Flag for Brazil Weather past 2 weeks in Santarém, Para, Brazil

Now
82 °F

Passing clouds.


Feels Like: 89 °F
Forecast: 75 / 87 °F
Wind: 12 mph from East

Location: Santarem-Aeroporto

Current Time: Jan 28, 2015 at 9:31:24 AM

Latest Report: Jan 28, 2015 at 9:00 AM


Visibility: N/A

Pressure: 29.89 "Hg

Humidity: 79%

Dew point: 75 °F

Location of SantarémLocation

Historic Weather in Santarém — Graph

°F

Santarém temperature yesterday

Maximum temperature yesterday: 88 °F (at 3:00 PM)
Minimum temperature yesterday: 72 °F (at 3:00 AM)
Average temperature yesterday: 79 °F

Past Weeks' High & Low Weather Summary

 TemperatureHumidityPressure
High90 °F (Jan 13, 4:00 PM)100% (Jan 13, 11:00 PM)29.95 "Hg (Jan 13, 11:00 PM)
Low41 °F (Jan 26, 12:00 AM)59% (Jan 13, 4:00 PM)29.77 "Hg (Jan 13, 5:00 PM)
Average78 °F88%29.86 "Hg
* Reported Jan 13 8:00 AM — Jan 28 8:00 AM, Santarém, Weather by CustomWeather, © 2014

Note: Actual official high and low records may vary slightly from our data, if they occured in-between our weather recording intervals... More about our weather records

Advertising

Santarém weather history for previous 24 hours

 ConditionsComfort  
Time TempWeatherWind HumidityBarometerVisibility
8:00 AM
Jan 28
79 °FPassing clouds.9 mph89%29.89 "HgN/A
7:00 AM77 °FPassing clouds.7 mph94%29.86 "HgN/A
6:00 AM75 °FClear.3 mph94%29.83 "Hg10 mi
5:00 AM77 °FClear.5 mph94%29.83 "Hg10 mi
4:00 AM77 °FClear.3 mph94%29.83 "Hg10 mi
3:00 AM79 °FClear.7 mph89%29.83 "Hg10 mi
2:00 AM77 °FClear.2 mph94%29.83 "Hg10 mi
1:00 AM75 °FClear.3 mph94%29.83 "Hg10 mi
12:00 AM75 °FClear.2 mph94%29.86 "Hg10 mi
11:00 PM
Jan 27
75 °FClear.No wind100%29.86 "Hg10 mi
10:00 PM75 °FClear.No wind94%29.83 "Hg10 mi
9:00 PM77 °FClear.3 mph89%29.83 "Hg10 mi
8:00 PM79 °FClear.3 mph84%29.80 "Hg10 mi
7:00 PM82 °FSunny.3 mph74%29.77 "Hg10 mi
6:00 PM84 °FPassing clouds.6 mph70%29.77 "HgN/A
5:00 PM88 °FPassing clouds.7 mph62%29.77 "HgN/A
4:00 PM88 °FPassing clouds.10 mph66%29.80 "HgN/A
3:00 PM88 °FPartly sunny.9 mph62%29.83 "HgN/A
2:00 PM86 °FPassing clouds.12 mph70%29.86 "HgN/A
1:00 PM84 °FScattered clouds.12 mph74%29.89 "HgN/A
12:00 PM84 °FScattered clouds.17 mph74%29.92 "HgN/A
11:00 AM82 °FScattered clouds.12 mph74%29.92 "HgN/A
10:00 AM82 °FBroken clouds.17 mph79%29.92 "HgN/A
9:00 AM79 °FPartly sunny.14 mph89%29.92 "HgN/A
Weather by CustomWeather, © 2014

See weather overviewHow to use our weather pages